Printer-friendly version

IAU Minor Planet Center

Minor Planet Center

MPEC 2007-T24 : 2007 TH3

The following Minor Planet Electronic Circular may be linked-to from your own Web pages, but must not otherwise be redistributed electronically.


Read MPEC 2007-T23 Read MPEC 2007-T25


M.P.E.C. 2007-T24                                Issued 2007 Oct. 7, 15:38 UT

     The Minor Planet Electronic Circulars contain information on unusual
         minor planets and routine data on comets.  They are published
   on behalf of Commission 20 of the International Astronomical Union by the
          Minor Planet Center, Smithsonian Astrophysical Observatory,
                          Cambridge, MA 02138, U.S.A.

             Prepared using the Tamkin Foundation Computer Network

                              MPC@CFA.HARVARD.EDU
          URL http://www.cfa.harvard.edu/iau/mpc.html  ISSN 1523-6714

                                   2007 TH3

Observations:
     K07T03H* C2007 10 06.15320 22 57 51.30 -08 14 27.5          17.7   ET024704
     K07T03H  C2007 10 06.16415 22 57 45.49 -08 10 17.8          18.4   ET024704
     K07T03H  C2007 10 06.17510 22 57 39.67 -08 06 08.7          18.2   ET024704
     K07T03H  C2007 10 06.18603 22 57 33.87 -08 02 00.0          18.1   ET024704
     K07T03H  C2007 10 06.19700 22 57 28.04 -07 57 50.9          18.0   ET024704
     K07T03H  C2007 10 06.99800 22 52 33.11 -03 20 36.3          18.0 R ET024473
     K07T03H  C2007 10 07.00257 22 52 31.28 -03 19 11.0          18.2 R ET024473
     K07T03H  C2007 10 07.10134 22 52 27.04 -02 47 03.7          17.8 V ET024703
     K07T03H  C2007 10 07.10598 22 52 25.14 -02 45 37.3          18.0 V ET024703
     K07T03H  C2007 10 07.11059 22 52 23.26 -02 44 12.6          17.7 V ET024703
     K07T03H  C2007 10 07.11519 22 52 21.32 -02 42 47.8          17.8 V ET024703
     K07T03H  C2007 10 07.20804 22 51 41.72 -02 14 18.9          17.5 R ET024651
     K07T03H  C2007 10 07.20856 22 51 41.50 -02 14 09.2          17.4 R ET024651
     K07T03H  C2007 10 07.20908 22 51 41.27 -02 13 59.7          17.4 R ET024651
     K07T03H  C2007 10 07.23400 22 51 22.56 -02 06 44.7          17.6 R ET024850
     K07T03H  C2007 10 07.24388 22 51 18.57 -02 03 45.5          17.6 R ET024850
     K07T03H  C2007 10 07.26050 22 51 11.98 -01 58 45.6          17.5 R ET024850

Observer details:
473 Remanzacco.  Observers L. Donato, M. Gonano, V. Gonano, E. Guido,
    V. Santini, G. Sostero.  0.45-m f/4.4 Newtonian reflector + CCD.
651 Grasslands Observatory, Tucson.  Observer J. E. McGaha.  0.62-m f/5.1
    Newtonian reflector + CCD.
703 Catalina Sky Survey.  Observer R. A. Kowalski.  Measurers E. C. Beshore,
    A. Boattini, G. J. Garradd, A. R. Gibbs, A. D. Grauer, R. E. Hill,
    R. A. Kowalski, S. M. Larson, R. H. McNaught.  0.68-m Schmidt + CCD.
704 Lincoln Laboratory ETS, New Mexico.  Observers M. Bezpalko, D. Torres,
    R. Kracke, G. Spitz, J. Kistler.  Measurers J. Stuart, S. Scruggs.  1.0-m
    f/2.15 reflector + CCD.
850 Cordell-Lorenz Observatory, Sewanee.  Observer D. T. Durig.  0.35-m f/8.2
    Ritchey-Chretien + 1Kx1K CCD.

Orbital elements:
2007 TH3                                                 Earth MOID = 0.0142 AU
Epoch 2007 Oct. 27.0 TT = JDT 2454400.5                 MPC
M 130.78501              (2000.0)            P               Q
n   1.03449558     Peri.  238.22357     -0.34008654     +0.93992317
a   0.9682413      Node    12.00508     -0.80716782     -0.27552308
e   0.1208146      Incl.    8.22562     -0.48251555     -0.20157248
P   0.95           H   24.7           G   0.15           U   7
Residuals in seconds of arc
071006 704  0.0   0.1+    071007 473  0.1-  1.5-    071007 651  0.1-  0.2+
071006 704  0.1-  0.1+    071007 703  0.1+  0.7+    071007 651  0.1-  0.3+
071006 704  0.2-  0.2-    071007 703  0.0   1.0+    071007 850  0.1+  0.4-
071006 704  0.0   0.0     071007 703  0.3+  0.2+    071007 850  0.0   0.2-
071006 704  0.2+  0.0     071007 703  0.3-  0.2-    071007 850  0.2-  0.5-
071006 473  0.5+  0.5+    071007 651  0.1-  0.0

Ephemeris:
2007 TH3                 a,e,i = 0.97, 0.12, 8                   q = 0.8513
Date    TT    R. A. (2000) Decl.     Delta      r     Elong.  Phase     V
2007 10 07    22 52.75   -03 15.6    0.0235   1.020   149.8    29.5    17.9
2007 10 09    22 44.34   +05 19.8    0.0290   1.024   147.2    31.9    18.4
2007 10 11    22 38.91   +11 04.5    0.0350   1.027   144.1    34.8    18.9
2007 10 13    22 35.32   +15 05.5    0.0413   1.030   141.2    37.4    19.4
2007 10 15    22 32.98   +18 01.1    0.0479   1.034   138.7    39.5    19.7
2007 10 17    22 31.53   +20 13.7    0.0545   1.037   136.6    41.4    20.1
2007 10 19    22 30.76   +21 56.5    0.0613   1.040   134.7    42.9    20.4
2007 10 21    22 30.52   +23 18.4    0.0681   1.043   133.0    44.3    20.7
2007 10 23    22 30.70   +24 24.7    0.0750   1.046   131.4    45.5    20.9
2007 10 25    22 31.24   +25 19.3    0.0820   1.049   130.0    46.6    21.1
2007 10 27    22 32.07   +26 05.0    0.0889   1.052   128.7    47.5    21.3
2007 10 29    22 33.16   +26 43.4    0.0960   1.055   127.4    48.4    21.5
2007 10 31    22 34.49   +27 16.2    0.103    1.057   126.2    49.3    21.7
2007 11 02    22 36.04   +27 44.3    0.110    1.060   125.1    50.0    21.9
2007 11 04    22 37.79   +28 08.7    0.117    1.062   124.0    50.8    22.1
2007 11 06    22 39.74   +28 30.1    0.124    1.064   122.9    51.4    22.2

Gareth V. Williams           (C) Copyright 2007 MPC           M.P.E.C. 2007-T24

Read MPEC 2007-T23 Read MPEC 2007-T25


Our Web policy. Index to the CBAT/MPC/ICQ pages.


Valid HTML 4.01!